Time,TemperatureF,DewpointF,PressureIn,WindDirection,WindDirectionDegrees,WindSpeedMPH,WindSpeedGustMPH,Humidity,HourlyPrecipIn,Conditions,Clouds,dailyrainin,SoftwareType,DateUTC
2013-04-13 01:11:00,5.7,-2.0,30.40,North,11,0.0,0.0,71,0.00,,,0.00,weatherlink.com 1.10,2013-04-13 09:11:00,
2013-04-13 01:41:00,5.1,-2.0,30.41,North,11,0.0,0.0,72,0.00,,,0.00,weatherlink.com 1.10,2013-04-13 09:41:00,
2013-04-13 01:56:00,4.6,-2.0,30.41,North,11,0.0,0.0,73,0.00,,,0.00,weatherlink.com 1.10,2013-04-13 09:56:00,
2013-04-13 02:11:00,5.1,-2.0,30.41,North,11,0.0,0.0,72,0.00,,,0.00,weatherlink.com 1.10,2013-04-13 10:11:00,
2013-04-13 02:42:00,4.3,-3.0,30.41,North,11,0.0,0.0,73,0.00,,,0.00,weatherlink.com 1.10,2013-04-13 10:42:00,
2013-04-13 03:12:00,3.5,-3.0,30.42,North,11,0.0,0.0,74,0.00,,,0.00,weatherlink.com 1.10,2013-04-13 11:12:00,
2013-04-13 03:27:00,2.6,-4.0,30.42,North,11,0.0,0.0,74,0.00,,,0.00,weatherlink.com 1.10,2013-04-13 11:27:00,
2013-04-13 03:42:00,3.0,-4.0,30.42,North,11,0.0,0.0,74,0.00,,,0.00,weatherlink.com 1.10,2013-04-13 11:42:00,
2013-04-13 03:57:00,2.5,-4.0,30.43,North,11,0.0,0.0,74,0.00,,,0.00,weatherlink.com 1.10,2013-04-13 11:57:00,
2013-04-13 04:12:00,1.5,-5.0,30.43,North,11,0.0,0.0,75,0.00,,,0.00,weatherlink.com 1.10,2013-04-13 12:12:00,
2013-04-13 04:27:00,1.9,-5.0,30.43,North,1,0.0,0.0,74,0.00,,,0.00,weatherlink.com 1.10,2013-04-13 12:27:00,
2013-04-13 04:42:00,1.9,-5.0,30.43,North,1,0.0,0.0,74,0.00,,,0.00,weatherlink.com 1.10,2013-04-13 12:42:00,
2013-04-13 04:57:00,1.8,-4.0,30.43,North,1,0.0,0.0,75,0.00,,,0.00,weatherlink.com 1.10,2013-04-13 12:57:00,
2013-04-13 05:12:00,1.6,-5.0,30.43,North,1,0.0,0.0,75,0.00,,,0.00,weatherlink.com 1.10,2013-04-13 13:12:00,
2013-04-13 05:27:00,0.5,-5.0,30.43,North,1,0.0,0.0,76,0.00,,,0.00,weatherlink.com 1.10,2013-04-13 13:27:00,
2013-04-13 05:42:00,0.8,-5.0,30.43,North,1,0.0,0.0,76,0.00,,,0.00,weatherlink.com 1.10,2013-04-13 13:42:00,
2013-04-13 05:57:00,0.6,-5.0,30.44,North,1,0.0,0.0,76,0.00,,,0.00,weatherlink.com 1.10,2013-04-13 13:57:00,
2013-04-13 06:13:00,0.5,-5.0,30.44,North,1,0.0,0.0,77,0.00,,,0.00,weatherlink.com 1.10,2013-04-13 14:13:00,
2013-04-13 06:28:00,0.0,-6.0,30.45,North,1,0.0,0.0,76,0.00,,,0.00,weatherlink.com 1.10,2013-04-13 14:28:00,
2013-04-13 07:13:00,-0.7,-7.0,30.45,North,1,0.0,0.0,76,0.00,,,0.00,weatherlink.com 1.10,2013-04-13 15:13:00,
2013-04-13 07:43:00,-0.4,-6.0,30.46,North,11,0.0,1.0,76,0.00,,,0.00,weatherlink.com 1.10,2013-04-13 15:43:00,
2013-04-13 07:58:00,0.0,-6.0,30.46,North,11,0.0,1.0,76,0.00,,,0.00,weatherlink.com 1.10,2013-04-13 15:58:00,
2013-04-13 08:13:00,0.4,-6.0,30.47,North,11,0.0,0.0,76,0.00,,,0.00,weatherlink.com 1.10,2013-04-13 16:13:00,
2013-04-13 08:28:00,1.2,-5.0,30.47,ENE,62,0.0,0.0,75,0.00,,,0.00,weatherlink.com 1.10,2013-04-13 16:28:00,
2013-04-13 08:43:00,2.9,-4.0,30.48,ENE,60,0.0,1.0,73,0.00,,,0.00,weatherlink.com 1.10,2013-04-13 16:43:00,
2013-04-13 08:58:00,4.6,-3.0,30.48,ENE,60,0.0,0.0,71,0.00,,,0.00,weatherlink.com 1.10,2013-04-13 16:58:00,
2013-04-13 09:28:00,8.3,-2.0,30.48,ESE,122,0.0,1.0,64,0.00,,,0.00,weatherlink.com 1.10,2013-04-13 17:28:00,
2013-04-13 09:44:00,9.9,-2.0,30.48,SSE,155,0.0,1.0,60,0.00,,,0.00,weatherlink.com 1.10,2013-04-13 17:44:00,
2013-04-13 09:59:00,11.2,-1.0,30.48,SE,132,0.0,2.0,57,0.00,,,0.00,weatherlink.com 1.10,2013-04-13 17:59:00,
2013-04-13 10:14:00,12.0,-1.0,30.48,South,182,0.0,1.0,57,0.00,,,0.00,weatherlink.com 1.10,2013-04-13 18:14:00,
2013-04-13 10:29:00,13.0,-1.0,30.48,West,279,1.0,1.0,54,0.00,,,0.00,weatherlink.com 1.10,2013-04-13 18:29:00,
2013-04-13 10:44:00,14.1,0.0,30.48,SSW,203,0.0,2.0,53,0.00,,,0.00,weatherlink.com 1.10,2013-04-13 18:44:00,
2013-04-13 10:59:00,15.2,-1.0,30.48,SE,131,0.0,3.0,50,0.00,,,0.00,weatherlink.com 1.10,2013-04-13 18:59:00,
2013-04-13 11:14:00,16.7,0.0,30.48,West,269,0.0,2.0,48,0.00,,,0.00,weatherlink.com 1.10,2013-04-13 19:14:00,
2013-04-13 11:29:00,17.3,0.0,30.48,ESE,115,2.0,3.0,47,0.00,,,0.00,weatherlink.com 1.10,2013-04-13 19:29:00,
2013-04-13 11:44:00,18.9,0.0,30.48,SSE,166,0.0,2.0,44,0.00,,,0.00,weatherlink.com 1.10,2013-04-13 19:44:00,
2013-04-13 11:59:00,19.7,2.0,30.48,SSE,165,3.0,3.0,46,0.00,,,0.00,weatherlink.com 1.10,2013-04-13 19:59:00,
2013-04-13 12:14:00,20.7,1.0,30.48,SW,219,0.0,4.0,43,0.00,,,0.00,weatherlink.com 1.10,2013-04-13 20:14:00,
2013-04-13 12:29:00,21.9,1.0,30.47,West,281,0.0,5.0,41,0.00,,,0.00,weatherlink.com 1.10,2013-04-13 20:29:00,
2013-04-13 12:44:00,22.1,3.0,30.47,SSE,155,2.0,4.0,44,0.00,,,0.00,weatherlink.com 1.10,2013-04-13 20:44:00,
2013-04-13 13:00:00,23.3,2.0,30.47,South,188,1.0,4.0,40,0.00,,,0.00,weatherlink.com 1.10,2013-04-13 21:00:00,
2013-04-13 13:15:00,24.2,2.0,30.47,South,184,0.0,4.0,38,0.00,,,0.00,weatherlink.com 1.10,2013-04-13 21:15:00,
2013-04-13 13:30:00,24.8,1.0,30.47,South,171,0.0,3.0,36,0.00,,,0.00,weatherlink.com 1.10,2013-04-13 21:30:00,
2013-04-13 13:45:00,24.2,2.0,30.47,SW,236,0.0,3.0,39,0.00,,,0.00,weatherlink.com 1.10,2013-04-13 21:45:00,
2013-04-13 14:00:00,25.0,3.0,30.46,West,281,1.0,3.0,38,0.00,,,0.00,weatherlink.com 1.10,2013-04-13 22:00:00,
2013-04-13 14:15:00,25.8,2.0,30.46,SW,221,0.0,4.0,35,0.00,,,0.00,weatherlink.com 1.10,2013-04-13 22:15:00,
2013-04-13 14:30:00,25.3,1.0,30.46,West,274,0.0,4.0,35,0.00,,,0.00,weatherlink.com 1.10,2013-04-13 22:30:00,
2013-04-13 14:45:00,25.8,2.0,30.46,SE,129,3.0,3.0,35,0.00,,,0.00,weatherlink.com 1.10,2013-04-13 22:45:00,
2013-04-13 15:00:00,26.1,3.0,30.46,West,269,2.0,6.0,37,0.00,,,0.00,weatherlink.com 1.10,2013-04-13 23:00:00,
2013-04-13 15:15:00,26.1,2.0,30.45,WNW,289,3.0,4.0,35,0.00,,,0.00,weatherlink.com 1.10,2013-04-13 23:15:00,
2013-04-13 15:30:00,26.5,2.0,30.45,ENE,76,0.0,3.0,35,0.00,,,0.00,weatherlink.com 1.10,2013-04-13 23:30:00,
2013-04-13 15:45:00,26.4,1.0,30.45,SE,145,1.0,4.0,34,0.00,,,0.00,weatherlink.com 1.10,2013-04-13 23:45:00,
2013-04-13 16:00:00,26.0,2.0,30.45,WNW,293,1.0,5.0,35,0.00,,,0.00,weatherlink.com 1.10,2013-04-14 00:00:00,
2013-04-13 16:15:00,26.0,1.0,30.45,South,172,1.0,4.0,34,0.00,,,0.00,weatherlink.com 1.10,2013-04-14 00:15:00,
2013-04-13 16:31:00,26.8,2.0,30.45,SSE,155,1.0,4.0,35,0.00,,,0.00,weatherlink.com 1.10,2013-04-14 00:31:00,
2013-04-13 16:46:00,26.1,2.0,30.45,ESE,113,1.0,7.0,36,0.00,,,0.00,weatherlink.com 1.10,2013-04-14 00:46:00,
2013-04-13 17:16:00,27.5,2.0,30.45,SE,145,0.0,5.0,34,0.00,,,0.00,weatherlink.com 1.10,2013-04-14 01:16:00,
2013-04-13 17:31:00,26.7,2.0,30.46,ESE,117,1.0,4.0,34,0.00,,,0.00,weatherlink.com 1.10,2013-04-14 01:31:00,
2013-04-13 17:46:00,26.1,3.0,30.46,ESE,108,0.0,3.0,37,0.00,,,0.00,weatherlink.com 1.10,2013-04-14 01:46:00,
2013-04-13 18:01:00,25.8,2.0,30.45,SE,131,0.0,4.0,36,0.00,,,0.00,weatherlink.com 1.10,2013-04-14 02:01:00,
2013-04-13 18:16:00,25.7,1.0,30.45,SE,131,2.0,4.0,35,0.00,,,0.00,weatherlink.com 1.10,2013-04-14 02:16:00,
2013-04-13 18:31:00,25.1,2.0,30.46,SSE,158,3.0,8.0,37,0.00,,,0.00,weatherlink.com 1.10,2013-04-14 02:31:00,
2013-04-13 18:46:00,24.9,2.0,30.46,SE,136,2.0,5.0,38,0.00,,,0.00,weatherlink.com 1.10,2013-04-14 02:46:00,
2013-04-13 19:17:00,23.6,2.0,30.47,ESE,110,1.0,3.0,39,0.00,,,0.00,weatherlink.com 1.10,2013-04-14 03:17:00,
2013-04-13 19:31:00,23.1,3.0,30.47,WSW,248,0.0,2.0,41,0.00,,,0.00,weatherlink.com 1.10,2013-04-14 03:31:00,
2013-04-13 19:46:00,22.7,2.0,30.47,SSE,155,0.0,3.0,40,0.00,,,0.00,weatherlink.com 1.10,2013-04-14 03:46:00,
2013-04-13 20:02:00,22.3,1.0,30.47,SSE,159,0.0,2.0,40,0.00,,,0.00,weatherlink.com 1.10,2013-04-14 04:02:00,
2013-04-13 20:17:00,21.5,2.0,30.48,SSE,147,0.0,2.0,43,0.00,,,0.00,weatherlink.com 1.10,2013-04-14 04:17:00,
2013-04-13 20:32:00,21.1,2.0,30.48,SSE,165,0.0,0.0,44,0.00,,,0.00,weatherlink.com 1.10,2013-04-14 04:32:00,
2013-04-13 20:47:00,19.9,2.0,30.48,SSE,165,0.0,0.0,46,0.00,,,0.00,weatherlink.com 1.10,2013-04-14 04:47:00,
2013-04-13 21:02:00,18.2,4.0,30.49,SSE,165,0.0,0.0,53,0.00,,,0.00,weatherlink.com 1.10,2013-04-14 05:02:00,
2013-04-13 21:17:00,16.2,4.0,30.49,SSE,165,0.0,0.0,59,0.00,,,0.00,weatherlink.com 1.10,2013-04-14 05:17:00,
2013-04-13 21:32:00,15.3,4.0,30.49,SSE,165,0.0,0.0,61,0.00,,,0.00,weatherlink.com 1.10,2013-04-14 05:32:00,
2013-04-13 21:47:00,14.6,4.0,30.49,SE,136,0.0,1.0,62,0.00,,,0.00,weatherlink.com 1.10,2013-04-14 05:47:00,
2013-04-13 22:02:00,14.3,4.0,30.50,SE,135,0.0,0.0,63,0.00,,,0.00,weatherlink.com 1.10,2013-04-14 06:02:00,
2013-04-13 22:17:00,13.6,3.0,30.50,SE,135,0.0,0.0,64,0.00,,,0.00,weatherlink.com 1.10,2013-04-14 06:17:00,
2013-04-13 22:32:00,13.1,3.0,30.50,East,93,0.0,1.0,65,0.00,,,0.00,weatherlink.com 1.10,2013-04-14 06:32:00,
2013-04-13 22:47:00,12.2,4.0,30.50,North,11,0.0,1.0,68,0.00,,,0.00,weatherlink.com 1.10,2013-04-14 06:47:00,
2013-04-13 23:02:00,12.2,3.0,30.51,North,11,0.0,0.0,66,0.00,,,0.00,weatherlink.com 1.10,2013-04-14 07:02:00,
2013-04-13 23:18:00,12.2,4.0,30.51,North,11,0.0,0.0,68,0.00,,,0.00,weatherlink.com 1.10,2013-04-14 07:18:00,
2013-04-13 23:33:00,12.1,3.0,30.51,North,11,0.0,0.0,68,0.00,,,0.00,weatherlink.com 1.10,2013-04-14 07:33:00,
2013-04-13 23:48:00,12.3,4.0,30.51,North,11,0.0,0.0,68,0.00,,,0.00,weatherlink.com 1.10,2013-04-14 07:48:00,